格洛纳斯M-747 COSMOS 2485 [GLONASS-M]

导读

COSMOS 2485(编号GLONASS)是独联体(CIS)发射的格洛纳斯-M型导航卫星,于2013年4月26日由俄罗斯联盟2-1b火箭自普列谢茨克发射场成功发射。它属于俄罗斯GLONASS全球卫星导航系统组网卫星,旨在补充系统星座,发射后系统工作卫星重回全球覆盖要求的24颗规模,完成在轨测试后投入使用,为全球用户提供高精度导航定位服务。

Basic Information
目录编号:
39155
目录名称:
COSMOS 2485 (GLONASS)
国际标识:
2013-019A
轨道中心:
EARTH
卫星名称:
格洛纳斯M-747
卫星全名:
格洛纳斯M-747 COSMOS 2485 [GLONASS-M]
卫星状态:
在轨 (已飞行4799 天)
发射日期:
2013-04-26 UTC
国别 :
俄罗斯(独联体) (CIS)
星等 :
--
Orbit Information
数据来源 国际轨道数据 AOE轨道数据
星历时间 2026-06-16T07:18:56+0800
15小时前
查看轨道信息
2026-06-14T16:00:00+0800
2天前
查看轨道信息
半长轴 25507.921km 25507.993km
偏心率 0.0023179 0.0023223
轨道倾角 65.419° 65.418°
近地点辐角 234.114° 234.146°
升交点赤经 73.646° 73.701°
平近点角 125.701° 308.934°
近地点 19070.659km 19070.618km
远地点 19188.909km 19189.094km
周期 675.729分钟 675.731分钟
每日圈数 2.131033 2.131024
Detailed Information
平衡模式:
三轴稳定
覆盖范围:
全球
运营商:
列舍特涅夫卫星信息系统
运营商所在国:
俄罗斯
制造商(研发单位):
列舍特涅夫卫星信息系统
制造商所在国:
俄罗斯
使用方式:
暂无
Satellite Introduction
格洛纳斯(GLONASS )是苏联/俄罗斯研制卫星导航系统。标准配置为24颗卫星,其中18颗卫星就能保证该系统为俄罗斯境内用户提供全部服务。该卫星仍在工作。
2D Orbit Map
3D Orbit Map
Orbit Altitude Analysis Chart
Orbit Inclination Analysis Chart
Orbit Comprehensive Analysis Chart
View Comprehensive Chart